Location: Anmer
(52.8333°N, 0.5833°E)
Time: 12:32:35
(UTC+00:00)

Cosmos 2322 Rocket - Pass Details

Date: 15 May 2026
Orbit: 831 x 850 km, 71.0° (Epoch: 7 June)

Event Time Altitude Azimuth Distance (km) Brightness Sun altitude
Rises 22:16:08 0° 323° (NW) 3,408 7.0 -15.1°
Reaches altitude 10° 22:18:48 10° 314° (NW) 2,472 5.7 -15.2°
Maximum altitude 22:23:43 31° 254° (WSW) 1,439 3.5 -15.5°
Enters shadow 22:27:35 15° 200° (SSW) 2,137 3.9 -15.7°
